This is the latest recevied weather packets stored in our database for station/object N3FU-13. If no packets are shown the sender has not sent any weather packets the latest 10 day(s).
| Time | Temp. | Humidity | Pressure | Rain* | Wind** | Luminosity | Snow |
|---|---|---|---|---|---|---|---|
| 1777497137 | 30° C | 71% | 1012.6 hPa | 0 mm | - | - | - |
| 1777496237 | 30° C | 71% | 1012.9 hPa | 0 mm | - | - | - |
| 1777495338 | 30.56° C | 69% | 1013.2 hPa | 0 mm | - | - | - |
| 1777494437 | 30.56° C | 68% | 1013.4 hPa | 0 mm | - | - | - |
| 1777493538 | 31.11° C | 67% | 1013.7 hPa | 0 mm | - | - | - |
| 1777492637 | 31.67° C | 65% | 1014 hPa | 0 mm | - | - | - |
| 1777491738 | 31.67° C | 65% | 1014.2 hPa | 0 mm | - | - | - |
| 1777490838 | 31.67° C | 65% | 1014.5 hPa | 0 mm | - | - | - |
| 1777489938 | 31.67° C | 63% | 1014.9 hPa | 0 mm | - | - | - |
| 1777489038 | 31.67° C | 63% | 1015.2 hPa | 0 mm | - | - | - |
| 1777488138 | 31.67° C | 61% | 1015.3 hPa | 0 mm | - | - | - |
| 1777487238 | 32.22° C | 60% | 1015.5 hPa | 0 mm | - | - | - |
| 1777486338 | 32.22° C | 60% | 1015.6 hPa | 0 mm | - | - | - |
| 1777485438 | 31.67° C | 59% | 1015.9 hPa | 0 mm | - | - | - |
| 1777484538 | 31.67° C | 58% | 1015.9 hPa | 0 mm | - | - | - |
| 1777483638 | 31.67° C | 58% | 1016 hPa | 0 mm | - | - | - |
| 1777482738 | 31.67° C | 59% | 1016.2 hPa | 0 mm | - | - | - |
| 1777481838 | 32.22° C | 60% | 1016.4 hPa | 0 mm | - | - | - |
| 1777480938 | 31.67° C | 61% | 1016.5 hPa | 0 mm | - | - | - |
| 1777480038 | 31.67° C | 61% | 1016.8 hPa | 0 mm | - | - | - |
| 1777479138 | 31.67° C | 62% | 1017.1 hPa | 0 mm | - | - | - |
| 1777478238 | 31.11° C | 62% | 1017.5 hPa | 0 mm | - | - | - |
| 1777477338 | 31.11° C | 61% | 1017.6 hPa | 0 mm | - | - | - |
| 1777476438 | 31.11° C | 61% | 1017.5 hPa | 0 mm | - | - | - |
| 1777475538 | 30.56° C | 62% | 1017.3 hPa | 0 mm | - | - | - |
* Rain latest hour (hover to see other rain measurements)
** Current wind speed in m/s (hover to see current wind gust speed)